Location: Champseau
(45.8333°N, 1.7667°E)
Time: 06:04:28
(UTC+00:00)

Cosmos 2333 Rocket - Pass Details

Date: 18 April 2021
Orbit: 838 x 864 km, 70.8° (Epoch: 15 May)

Event Time Altitude Azimuth Distance (km) Brightness Sun altitude
Rises 19:57:12 0° 331° (NNW) 3,453 6.5 -12.5°
Reaches altitude 10° 19:59:41 10° 329° (NNW) 2,510 5.7 -12.9°
Maximum altitude 20:05:25 68° 248° (WSW) 927 2.5 -13.7°
Enters shadow 20:10:56 11° 167° (SSE) 2,433 4.2 -14.5°
